Monticello, KY

6:17 AM EDT on July 22, 2017 (GMT -0400)
Wayne County

Weather History for KEKQ - February, 2012

Change the Weather History Date:

Tuesday, February 7, 2012

  Actual Average Record
Temperature  
Mean Temperature 36 °F -  
Max Temperature 50 °F 42 °F 66 °F (2017)
Min Temperature 21 °F 23 °F -6 °F (1984)
Degree Days  
Heating Degree Days 30    
Moisture  
Dew Point 27 °F    
Average Humidity 92    
Maximum Humidity 100    
Minimum Humidity 46    
Precipitation  
Precipitation 0.00 in - - ()
Sea Level Pressure  
Sea Level Pressure 30.26 in    
Wind  
Wind Speed 0 mph (WNW)    
Max Wind Speed 7 mph    
Max Gust Speed -    
Visibility 4 miles    
Events Fog    
Averages and records for this station are not official NWS values.
T = Trace of Precipitation, MM = Missing Value Source: NWS Daily Summary

Daily Weather History Graph

Daily Weather History Graph

Search for Another Location

Airport or City:

Trip Planner

Search our weather history database for the weather conditions in past years. The results will help you decide how hot, cold, wet, or windy it might be!

Date:

Astronomy

Feb. 07, 2012 Rise Set
Actual Time 6:36 AM CST 5:10 PM CST
Civil Twilight 6:09 AM CST 5:37 PM CST
Nautical Twilight 5:39 AM CST 6:08 PM CST
Astronomical Twilight 5:08 AM CST 6:38 PM CST
Moon 5:19 PM CST (2/7) 6:06 AM CST (2/7)
Length of Visible Light 11h 27m
Length of Day
10h 34m
Full, 100% of the Moon is Illuminated
Feb 7
Full
Feb 7
Full
Feb 14
Last Quarter
Feb 21
New
Feb 29
First Quarter

Hourly Weather History & Observations

Time (CST) Temp. Windchill Dew Point Humidity Pressure Visibility Wind Dir Wind Speed Gust Speed Precip Events Conditions
12:27 AM 26.6 °F - 26.6 °F 100% 30.23 in 1.8 mi Calm Calm - N/A   Clear
12:29 AM 26.6 °F - 26.6 °F 100% 30.23 in 1.0 mi Calm Calm - N/A   Clear
12:31 AM 26.6 °F - 26.6 °F 100% 30.23 in 0.5 mi Calm Calm - N/A Fog Light Freezing Fog
12:41 AM 26.6 °F - 26.6 °F 100% 30.23 in 1.2 mi Calm Calm - N/A   Clear
12:44 AM 24.8 °F - 24.8 °F 100% 30.22 in 2.0 mi Calm Calm - N/A   Clear
12:56 AM 25.2 °F - 25.2 °F 100% 30.26 in 3.0 mi Calm Calm - N/A   Clear
1:33 AM 24.8 °F - 24.8 °F 100% 30.23 in 2.0 mi Calm Calm - N/A   Clear
1:56 AM 27.1 °F - 27.1 °F 100% 30.27 in 2.5 mi Calm Calm - N/A   Clear
2:12 AM 26.6 °F - 26.6 °F 100% 30.23 in 1.2 mi Calm Calm - N/A   Clear
2:14 AM 26.6 °F - 26.6 °F 100% 30.23 in 0.8 mi Calm Calm - N/A   Clear
2:29 AM 28.4 °F - 28.4 °F 100% 30.24 in 0.2 mi Calm Calm - N/A Fog Light Freezing Fog
2:37 AM 26.6 °F - 26.6 °F 100% 30.24 in 0.2 mi Calm Calm - N/A Fog Light Freezing Fog
2:44 AM 24.8 °F - 24.8 °F 100% 30.24 in 0.2 mi Calm Calm - N/A Fog Light Freezing Fog
2:56 AM 25.2 °F - 25.2 °F 100% 30.29 in 0.2 mi Calm Calm - N/A Fog Light Freezing Fog
3:05 AM 24.8 °F - 24.8 °F 100% 30.24 in 0.2 mi Calm Calm - N/A Fog Light Freezing Fog
3:28 AM 24.8 °F - 24.8 °F 100% 30.23 in 0.2 mi Calm Calm - N/A Fog Light Freezing Fog
3:56 AM 24.1 °F - 24.1 °F 100% 30.28 in 0.2 mi Calm Calm - N/A Fog Light Freezing Fog
4:12 AM 23.0 °F - 23.0 °F 100% 30.24 in 0.2 mi Calm Calm - N/A Fog Light Freezing Fog
4:29 AM 21.2 °F - 21.2 °F 100% 30.24 in 0.2 mi Calm Calm - N/A Fog Light Freezing Fog
4:49 AM 23.0 °F - 23.0 °F 100% 30.24 in 0.2 mi Calm Calm - N/A Fog Light Freezing Fog
4:56 AM 23.0 °F - 23.0 °F 100% 30.28 in 0.2 mi Calm Calm - N/A Fog Light Freezing Fog
5:05 AM 21.2 °F - 21.2 °F 100% 30.24 in 0.2 mi Calm Calm - N/A Fog Light Freezing Fog
5:14 AM 21.2 °F - 21.2 °F 100% 30.24 in 0.2 mi Calm Calm - N/A Fog Light Freezing Fog
5:45 AM 21.2 °F - 21.2 °F 100% 30.24 in 0.2 mi Calm Calm - N/A Fog Light Freezing Fog
5:56 AM 23.0 °F - 23.0 °F 100% 30.29 in 1.2 mi Calm Calm - N/A   Clear
5:58 AM 21.2 °F - 21.2 °F 100% 30.24 in 2.0 mi Calm Calm - N/A   Clear
6:18 AM 21.2 °F - 21.2 °F 100% 30.25 in 3.0 mi Calm Calm - N/A   Scattered Clouds
6:24 AM 23.0 °F - 21.2 °F 93% 30.25 in 2.5 mi Calm Calm - N/A   Mostly Cloudy
6:26 AM 23.0 °F - 23.0 °F 100% 30.25 in 0.8 mi Calm Calm - N/A   Mostly Cloudy
6:28 AM 23.0 °F - 23.0 °F 100% 30.25 in 0.2 mi Calm Calm - N/A Fog Light Freezing Fog
6:37 AM 23.0 °F - 23.0 °F 100% 30.24 in 0.2 mi Calm Calm - N/A Fog Light Freezing Fog
6:56 AM 25.2 °F - 25.2 °F 100% 30.30 in 0.2 mi Calm Calm - N/A Fog Light Freezing Fog
7:30 AM 24.8 °F - 24.8 °F 100% 30.25 in 0.5 mi Calm Calm - N/A Fog Light Freezing Fog
7:32 AM 24.8 °F - 24.8 °F 100% 30.25 in 1.0 mi Calm Calm - N/A   Clear
7:34 AM 24.8 °F - 24.8 °F 100% 30.25 in 1.5 mi Calm Calm - N/A   Clear
7:49 AM 28.4 °F - 28.4 °F 100% 30.26 in 2.5 mi Calm Calm - N/A   Clear
7:56 AM 29.1 °F - 29.1 °F 100% 30.31 in 3.0 mi Calm Calm - N/A   Clear
8:56 AM 36.0 °F - 36.0 °F 100% 30.32 in 5.0 mi Calm Calm - N/A   Clear
9:56 AM 43.9 °F - 34.0 °F 68% 30.32 in 10.0 mi Calm Calm - N/A   Clear
10:56 AM 45.9 °F 42.3 °F 32.9 °F 61% 30.31 in 10.0 mi NW 6.9 mph - N/A   Partly Cloudy
11:56 AM 47.8 °F - 32.9 °F 56% 30.29 in 10.0 mi NW 6.9 mph - N/A   Clear
12:56 PM 48.9 °F - 32.9 °F 54% 30.27 in 10.0 mi WNW 6.9 mph - N/A   Clear
1:56 PM 48.9 °F - 29.1 °F 46% 30.25 in 10.0 mi WNW 6.9 mph - N/A   Clear
2:56 PM 50.0 °F - 31.1 °F 48% 30.24 in 10.0 mi Calm Calm - N/A   Clear
3:56 PM 50.0 °F - 32.0 °F 50% 30.24 in 10.0 mi WSW 3.5 mph - N/A   Clear
4:56 PM 46.9 °F - 32.9 °F 58% 30.24 in 10.0 mi Calm Calm - N/A   Clear
5:56 PM 34.9 °F - 31.1 °F 86% 30.26 in 10.0 mi Calm Calm - N/A   Clear
6:56 PM 32.9 °F - 31.1 °F 93% 30.27 in 10.0 mi Calm Calm - N/A   Clear
7:56 PM 31.1 °F - 30.0 °F 96% 30.27 in 10.0 mi Calm Calm - N/A   Clear
8:56 PM 31.1 °F - 31.1 °F 100% 30.27 in 10.0 mi Calm Calm - N/A   Clear
9:56 PM 36.0 °F - 34.0 °F 93% 30.25 in 10.0 mi Calm Calm - N/A   Partly Cloudy
10:56 PM 37.9 °F - 36.0 °F 93% 30.24 in 10.0 mi Calm Calm - N/A   Overcast
11:56 PM 38.8 °F - 36.0 °F 89% 30.24 in 10.0 mi Calm Calm - N/A   Overcast